Tracking 31030 objects as of 16-Jul-2025
HD Live streaming from Space Station
objects crossing your sky now

STARLINK-6229

Track STARLINK-6229 now!
10-day predictions
STARLINK-6229 is classified as:


NORAD ID: 57093
Int'l Code: 2023-088AX
Perigee: 565.3 km
Apogee: 567.1 km
Inclination: 43.0 °
Period: 95.8 minutes
Semi major axis: 6937 km
RCS: Unknown
Launch date: June 22, 2023
Source: United States (US)
Launch site: AIR FORCE WESTERN TEST RANGE (AFWTR)
Your satellite tracking list
Your tracking list is empty




NASA's NSSDC Master Catalog

Two Line Element Set (TLE):
1 57093U 23088AX  25197.56879188  .00000087  00000-0  21527-4 0  9997
2 57093  43.0032 297.2549 0001309 269.5187  90.5505 15.02535349115005
Source of the keplerian elements: AFSPC